Location: Black Swamp Observatory
(41.3920°N, 84.1250°W)
Time: 05:50:00
(UTC-05:00)

Transit 2A - All Passes

Search period start: 19 January 2022 00:00
Search period end: 29 January 2022 00:00
Orbit: 591 x 967 km, 66.7° (Epoch: 18 January)

Date Brightness Start Highest point End Pass type
(mag) Time Alt. Az. Time Alt. Az. Time Alt. Az.
19 Jan - 00:06:23 10° WNW 00:09:43 16° WSW 00:12:53 10° SW night (unlit)
19 Jan - 12:59:27 10° SSW 13:05:27 67° ESE 13:11:48 10° NE daylight
19 Jan - 14:44:07 10° W 14:49:16 27° NW 14:54:35 10° NNE daylight
19 Jan - 20:05:14 10° N 20:08:20 14° NNE 20:11:21 10° ENE visible
19 Jan - 21:47:01 10° NNW 21:53:05 57° NE 21:58:34 10° SE visible
19 Jan - 23:31:14 10° NW 23:35:47 23° WSW 23:40:01 10° SSW night (unlit)
20 Jan - 12:25:33 10° S 12:31:19 48° ESE 12:37:23 10° NE daylight
20 Jan - 14:09:10 10° WSW 14:14:46 35° NW 14:20:34 10° NNE daylight
20 Jan - 19:31:56 10° NNE 19:33:35 11° NNE 19:35:14 10° NE visible
20 Jan - 21:12:53 10° NNW 21:18:41 41° NE 21:23:59 10° ESE visible
20 Jan - 22:56:30 10° NW 23:01:47 33° WSW 23:06:38 10° S night (unlit)
21 Jan - 11:51:53 10° S 11:57:14 34° ESE 12:02:51 10° NE daylight
21 Jan - 13:34:26 10° SW 13:40:20 46° NW 13:46:29 10° NNE daylight
21 Jan - 15:22:44 10° NW 15:25:18 12° NNW 15:27:53 10° N daylight
21 Jan - 20:38:49 10° NNW 20:44:13 31° NE 20:49:14 10° ESE visible
21 Jan - 22:21:57 10° NW 22:27:43 48° WSW 22:32:57 10° S visible
22 Jan - 11:18:32 10° SSE 11:23:13 24° ESE 11:28:06 10° NE daylight
22 Jan - 12:59:54 10° SW 13:05:58 62° WNW 13:12:20 10° NNE daylight
22 Jan - 14:46:54 10° WNW 14:50:34 16° NW 14:54:18 10° N daylight
22 Jan - 20:04:49 10° N 20:09:41 24° NE 20:14:15 10° E visible
22 Jan - 21:47:33 10° NW 21:53:35 70° WSW 21:59:01 10° SSE visible
23 Jan - 10:45:39 10° SE 10:49:16 16° ESE 10:52:59 10° ENE daylight
23 Jan - 12:25:33 10° SSW 12:31:40 84° WNW 12:38:07 10° NNE daylight
23 Jan - 14:11:26 10° W 14:15:55 20° NW 14:20:29 10° N daylight
23 Jan - 19:30:55 10° N 19:35:05 18° NE 19:39:02 10° E visible
23 Jan - 21:13:15 10° NNW 21:19:22 84° ENE 21:24:52 10° SSE visible
23 Jan - 22:58:43 10° WNW 23:01:37 14° W 23:04:24 10° SW visible
24 Jan - 10:14:10 10° ESE 10:15:22 11° E 10:16:34 10° E daylight
24 Jan - 11:51:22 10° SSW 11:57:26 71° ESE 12:03:50 10° NE daylight
24 Jan - 13:36:14 10° W 13:41:20 25° NW 13:46:33 10° N daylight
24 Jan - 18:57:10 10° N 19:00:24 14° NNE 19:03:32 10° ENE visible
24 Jan - 20:39:02 10° NNW 20:45:04 60° NE 20:50:31 10° SE visible
24 Jan - 22:23:24 10° WNW 22:27:42 21° WSW 22:31:42 10° SSW visible
25 Jan - 11:17:25 10° S 11:23:17 51° ESE 11:29:27 10° NE daylight
25 Jan - 13:01:15 10° WSW 13:06:49 33° NW 13:12:32 10° NNE daylight
25 Jan - 18:23:47 10° N 18:25:40 11° NNE 18:27:30 10° NE visible
25 Jan - 20:04:53 10° NNW 20:10:41 43° NE 20:15:59 10° ESE visible
25 Jan - 21:48:36 10° NW 21:53:43 31° WSW 21:58:24 10° SSW visible
26 Jan - 10:43:43 10° S 10:49:11 36° ESE 10:54:56 10° NE daylight
26 Jan - 12:26:29 10° WSW 12:32:22 44° NW 12:38:28 10° NNE daylight
26 Jan - 14:15:05 10° NW 14:17:23 12° NNW 14:19:41 10° N daylight
26 Jan - 19:30:49 10° NNW 19:36:14 32° NE 19:41:14 10° ESE visible
26 Jan - 21:14:01 10° NW 21:19:40 45° WSW 21:24:46 10° S visible
27 Jan - 10:10:17 10° SSE 10:15:10 25° ESE 10:20:14 10° NE daylight
27 Jan - 11:51:54 10° SW 11:57:59 59° NW 12:04:20 10° NNE daylight
27 Jan - 13:39:08 10° WNW 13:42:38 15° NW 13:46:11 10° N daylight
27 Jan - 18:56:48 10° N 19:01:43 25° NE 19:06:18 10° E visible
27 Jan - 20:39:35 10° NW 20:45:32 65° WSW 20:50:53 10° SSE visible
28 Jan - 09:37:17 10° SE 09:41:12 18° ESE 09:45:13 10° ENE daylight
28 Jan - 11:17:30 10° SSW 11:23:41 80° WNW 11:30:07 10° NNE daylight
28 Jan - 13:03:36 10° W 13:07:59 19° NW 13:12:24 10° N daylight
28 Jan - 18:22:53 10° N 18:27:08 19° NE 18:31:08 10° E visible
28 Jan - 20:05:17 10° NNW 20:11:20 89° ENE 20:16:46 10° SSE visible
28 Jan - 21:51:06 10° WNW 21:53:30 13° W 21:55:49 10° SW visible
